Regional Weather Roundup
Issued by NWS Sterling, VA

Home | Current Version | Previous Version | Graphics & Text | Print | Product List | Glossary On
Versions: 1 2 3 4 5 6 7 8 9 10 11 12 13 14 15 16 17 18 19 20 21 22 23 24 25 26 27 28 29 30 31 32 33 34 35 36 37 38 39 40 41 42 43 44 45 46 47 48 49 50
373
ASUS41 KLWX 180011
RWRLWX

REGIONAL WEATHER ROUNDUP
NATIONAL WEATHER SERVICE BALTIMORE MD/WASHINGTON DC
800 PM EDT THU AUG 17 2017

Note: "FAIR" indicates few or no clouds below 12,000 feet
with no significant weather and/or obstructions to visibility.
 TC=TEMPERATURE CELSIUS

 * =Non NWS site. Station does not report precipitation (e.g. rain,
    snow, etc.), thunder, or fog.

DCZ001-MDZ009-015-VAZ040>042-051-053>054-180100-
WASHINGTON METRO

CITY           SKY/WX    TMP DP  RH WIND       PRES   REMARKS
WASHINGTON NAT PTCLDY    84  75  74 S13       29.93F HX  92
DULLES         MOCLDY    82  75  79 SE8       29.92F
ANDREWS AFB    CLEAR     80  76  88 SE7       29.93F
FT BELVOIR     CLEAR     82  72  73 SE7       29.92F
QUANTICO       CLEAR     83  76  79 S10       29.92F HX  91
COLLEGE PARK*  CLEAR     78  75  89 CALM      29.93F
LEESBURG*      CLEAR     86  77  74 S6        29.93S HX  97
MANASSAS*      PTCLDY    81  74  79 SE6       29.92F
GAITHERSBURG*  CLEAR     79  74  84 SE8       29.95S

$$

MDZ006>007-011-014-180100-
BALTIMORE METRO

CITY           SKY/WX    TMP DP  RH WIND       PRES   REMARKS
BWI AIRPORT    PTCLDY    78  74  87 SE6       29.93F
MD SCIENCE CTR   N/A     82  72  71 MISG      29.93F
MARTIN STATE   PTCLDY    81  75  83 SE7       29.95F
ANNAPOLIS      PTCLDY    80  77  90 S9        29.93F
FORT MEADE*    CLEAR     77  73  88 SE3       29.96S

$$

MDZ012-015-019>023-180100-
MARYLAND EASTERN SHORE

CITY           SKY/WX    TMP DP  RH WIND       PRES   REMARKS
OCEAN CITY     CLOUDY    78  73  84 VRB6      29.99S
SALISBURY      CLOUDY    78  71  79 SE5       29.98R
BAY BRIDGE AP* CLEAR     79  75  89 SE5       29.94F
CAMBRIDGE*     MOCLDY    81  72  74 VRB6      29.96S
EASTON*        MOCLDY    82  73  74 S9        29.99F

$$

MDZ017>025-180100-
SOUTHERN MARYLAND

CITY           SKY/WX    TMP DP  RH WIND       PRES   REMARKS
PATUXENT RIVER PTCLDY    79  70  74 S7        29.94F
ST INIGOES     CLEAR     79  72  79 SE7       29.94F
LEONARDTOWN*   CLEAR     79  70  73 SE3       29.97S

$$

MDZ003>005-180100-
NORTH CENTRAL MARYLAND

CITY           SKY/WX    TMP DP  RH WIND       PRES   REMARKS
FREDERICK*     MOCLDY    82  73  74 SE7       29.94S
HAGERSTOWN APT CLEAR     84  73  69 S9        29.92R HX  90
WESTMINSTER*   CLOUDY    81  73  78 SE8       29.95F

$$

MDZ501>502-180100-
WESTERN MARYLAND

CITY           SKY/WX    TMP DP  RH WIND       PRES   REMARKS
OAKLAND*       MOCLDY    72  66  83 S5        30.01S
CUMBERLAND*    PTCLDY    82  73  74 CALM      29.94F

$$

VAZ025>031-180100-
SHENANDOAH VALLEY

CITY           SKY/WX    TMP DP  RH WIND       PRES   REMARKS
WINCHESTER*    PTCLDY    77  72  83 CALM        N/A
FRONT ROYAL*   PTCLDY    81  72  74 CALM      29.91S
LURAY*         CLEAR     82  72  69 CALM      29.93S
NEW MARKET*    CLOUDY    84  72  68 CALM      29.92R
STAUNTON*      CLOUDY    82  74  78 S6        29.97R
WAYNESBORO*    MOCLDY    78  72  82 S10G24    29.98S

$$

WVZ021-048>050-054>055-180100-
EASTERN WEST VIRGINIA PANHANDLE

CITY           SKY/WX    TMP DP  RH WIND       PRES   REMARKS
MARTINSBURG    PTCLDY    82  74  76 S6        29.90F
PETERSBURG*    CLOUDY    84  75  75 SE9       29.93R THUNDER HX  92

$$

VAZ036>039-050-180100-
CENTRAL FOOTHILLS

CITY           SKY/WX    TMP DP  RH WIND       PRES   REMARKS
CHARLOTTESVILL TSTM      79  74  84 S9G16     29.95R
CULPEPER*      CLEAR     83  75  78 S3        29.93S HX  90
ORANGE*        CLEAR     81  73  78 S5        29.94R
GORDONSVILLE*  PTCLDY    82  76  81 S3        29.94R HX  90
WARRENTON*     CLOUDY    83  71  68 SE3       29.92S

$$

VAZ055>057-180100-
NORTH AND CENTRAL PIEDMONT

CITY           SKY/WX    TMP DP  RH WIND       PRES   REMARKS
FREDERICKSBRG* CLEAR     83  75  77 SE7       29.92S
STAFFORD*      CLEAR     79  75  86 SE3       29.97S

$$

NCZ024-NYZ072-PAZ021-071-VAZ022-071-180100-
OTHER REGIONAL OBSERVATIONS

CITY           SKY/WX    TMP DP  RH WIND       PRES   REMARKS
NEW YORK CITY  CLEAR     74  66  76 CALM      30.01R
PHILADELPHIA   MOCLDY    81  67  62 S8        29.96S
PITTSBURGH     LGT RAIN  76  72  87 S6        29.87F
ROANOKE        TSTM      79  72  79 W6        30.01R
RICHMOND       PTCLDY    82  75  79 S7        29.95S
RALEIGH        CLOUDY    81  74  79 S7        29.99R

$$

ANZ530>537-180100-
MARINE OBSERVATIONS

STATION/POSITION TIME  TEMP    WIND        PRES
                       AIR SEA DIR/SP/G
                 (UTC) (F)     (DEG/KT/KT) (MB)
THOMAS PT LIGHT  0000   81 80  170/ 17/ 18   N/A
BALT KEY BRIDGE  2348   80     140/  8/ 10 1013.3F
COVE POINT       2348   81     180/ 16/ 17 1014.8F
LEWISETTA        2348   81 84  180/  8/ 10 1014.0F
SOLOMONS ISLAND  2348   81 82  150/  8/  9   N/A
PINEY POINT      2348          180/ 11/ 12   N/A

$$





USA.gov is the U.S. government's official web portal to all federal, state and local government web resources and services.